| time (UTC) | temp C | wind direction | speed KPH | gust KPH | rain 1hr cm | rain 24hr cm | rain mn cm | humidity % | barometer mb |
| 20260509001512 | 16 | 0.0 | 0.0 | 0.00 | 0.00 | 0.00 | 52 | 1025.4 | |
| 20260509000013 | 16 | 0.0 | 0.0 | 0.00 | 0.00 | 0.00 | 53 | 1025.3 | |
| 20260508234511 | 15 | 0.0 | 0.0 | 0.00 | 0.00 | 0.00 | 54 | 1025.2 | |
| 20260508233014 | 15 | 0.0 | 0.0 | 0.00 | 0.00 | 0.00 | 54 | 1025.1 | |
| 20260508231511 | 15 | 0.0 | 0.0 | 0.00 | 0.00 | 0.00 | 54 | 1025.1 | |
| 20260508230014 | 15 | 0.0 | 0.0 | 0.00 | 0.00 | 0.00 | 53 | 1025.0 | |
| 20260508224510 | 15 | 0.0 | 0.0 | 0.00 | 0.00 | 0.00 | 53 | 1024.8 | |
| 20260508223011 | 15 | 0.0 | 0.0 | 0.00 | 0.00 | 0.00 | 53 | 1024.8 | |
| 20260508221511 | 15 | 0.0 | 0.0 | 0.00 | 0.00 | 0.00 | 53 | 1024.7 | |
| 20260508220012 | 15 | 0.0 | 0.0 | 0.00 | 0.00 | 0.00 | 52 | 1024.7 | |
| 20260508214513 | 15 | 0.0 | 0.0 | 0.00 | 0.00 | 0.00 | 52 | 1024.6 | |
| 20260508213011 | 15 | 0.0 | 0.0 | 0.00 | 0.00 | 0.00 | 51 | 1024.3 | |
| 20260508211510 | 16 | 0.0 | 0.0 | 0.00 | 0.00 | 0.00 | 51 | 1024.1 | |
| 20260508210013 | 16 | 0.0 | 0.0 | 0.00 | 0.00 | 0.00 | 51 | 1023.9 | |
| 20260508204512 | 16 | 0.0 | 0.0 | 0.00 | 0.00 | 0.00 | 51 | 1023.9 | |
| 20260508203014 | 16 | 0.0 | 0.0 | 0.00 | 0.00 | 0.00 | 50 | 1023.9 | |
| 20260508201510 | 16 | 0.0 | 0.0 | 0.00 | 0.00 | 0.00 | 50 | 1023.8 | |
| 20260508200012 | 16 | 0.0 | 0.0 | 0.00 | 0.00 | 0.00 | 49 | 1023.6 | |
| 20260508194511 | 16 | 0.0 | 0.0 | 0.00 | 0.00 | 0.00 | 49 | 1023.6 | |
| 20260508193013 | 16 | 0.0 | 0.0 | 0.00 | 0.00 | 0.00 | 49 | 1023.6 | |
| 20260508191510 | 16 | 0.0 | 0.0 | 0.00 | 0.00 | 0.00 | 48 | 1023.6 | |
| 20260508190011 | 16 | 0.0 | 0.0 | 0.00 | 0.00 | 0.00 | 48 | 1023.5 | |
| 20260508184512 | 16 | 0.0 | 0.0 | 0.00 | 0.00 | 0.00 | 48 | 1023.7 | |
| 20260508183012 | 17 | 0.0 | 0.0 | 0.00 | 0.00 | 0.00 | 48 | 1023.6 | |
| 20260508181511 | 17 | 0.0 | 0.0 | 0.00 | 0.00 | 0.00 | 47 | 1023.6 | |
| 20260508180010 | 17 | 0.0 | 0.0 | 0.00 | 0.00 | 0.00 | 46 | 1023.6 | |
| 20260508174511 | 17 | 0.0 | 0.0 | 0.00 | 0.00 | 0.00 | 46 | 1023.6 | |
| 20260508173015 | 17 | 0.0 | 0.0 | 0.00 | 0.00 | 0.00 | 46 | 1023.5 | |
| 20260508171513 | 17 | 0.0 | 0.0 | 0.00 | 0.00 | 0.00 | 45 | 1023.5 | |
| 20260508170010 | 17 | 0.0 | 0.0 | 0.00 | 0.00 | 0.00 | 45 | 1023.6 | |
| 20260508164513 | 17 | 0.0 | 0.0 | 0.00 | 0.00 | 0.00 | 45 | 1023.6 | |
| 20260508163012 | 17 | 0.0 | 0.0 | 0.00 | 0.00 | 0.00 | 45 | 1023.7 | |
| 20260508161510 | 18 | 0.0 | 0.0 | 0.00 | 0.00 | 0.00 | 44 | 1023.5 | |
| 20260508160010 | 18 | 0.0 | 0.0 | 0.00 | 0.00 | 0.00 | 43 | 1023.5 | |
| 20260508154514 | 18 | 0.0 | 0.0 | 0.00 | 0.00 | 0.00 | 42 | 1023.5 | |
| 20260508153014 | 18 | 0.0 | 0.0 | 0.00 | 0.00 | 0.00 | 41 | 1023.4 | |
| 20260508151511 | 18 | 0.0 | 0.0 | 0.00 | 0.00 | 0.00 | 41 | 1023.5 | |
| 20260508150012 | 18 | 0.0 | 0.0 | 0.00 | 0.00 | 0.00 | 41 | 1023.4 | |
| 20260508144511 | 18 | 0.0 | 0.0 | 0.00 | 0.00 | 0.00 | 41 | 1023.6 | |
| 20260508143013 | 18 | 0.0 | 0.0 | 0.00 | 0.00 | 0.00 | 41 | 1023.7 | |
| 20260508141511 | 18 | 0.0 | 0.0 | 0.00 | 0.00 | 0.00 | 42 | 1023.7 | |
| 20260508140012 | 18 | 0.0 | 0.0 | 0.00 | 0.00 | 0.00 | 42 | 1023.8 | |
| 20260508134512 | 18 | 0.0 | 0.0 | 0.00 | 0.00 | 0.00 | 43 | 1023.7 | |
| 20260508133010 | 18 | 0.0 | 0.0 | 0.00 | 0.00 | 0.00 | 44 | 1023.8 | |
| 20260508131519 | 18 | 0.0 | 0.0 | 0.00 | 0.00 | 0.00 | 44 | 1023.9 | |
| 20260508130015 | 19 | 0.0 | 0.0 | 0.00 | 0.00 | 0.00 | 45 | 1023.6 | |
| 20260508124511 | 19 | 0.0 | 0.0 | 0.00 | 0.00 | 0.00 | 45 | 1023.7 | |
| 20260508123015 | 19 | 0.0 | 0.0 | 0.00 | 0.00 | 0.00 | 45 | 1023.6 | |
| 20260508121510 | 19 | 0.0 | 0.0 | 0.00 | 0.00 | 0.00 | 45 | 1023.6 | |
| 20260508120112 | 19 | 0.0 | 0.0 | 0.00 | 0.00 | 0.00 | 45 | 1023.5 | |
| 20260508120011 | 19 | 0.0 | 0.0 | 0.00 | 0.00 | 0.00 | 45 | 1023.5 | |
| 20260508114510 | 20 | 0.0 | 0.0 | 0.00 | 0.00 | 0.00 | 45 | 1023.5 | |
| 20260508113016 | 20 | 0.0 | 0.0 | 0.00 | 0.00 | 0.00 | 45 | 1023.4 | |
| 20260508111512 | 20 | 0.0 | 0.0 | 0.00 | 0.00 | 0.00 | 44 | 1023.4 | |
| 20260508110010 | 20 | 0.0 | 0.0 | 0.00 | 0.00 | 0.00 | 44 | 1023.5 | |
| 20260508104514 | 20 | 0.0 | 0.0 | 0.00 | 0.00 | 0.00 | 43 | 1023.5 | |
| 20260508103012 | 21 | 0.0 | 0.0 | 0.00 | 0.00 | 0.00 | 43 | 1023.4 | |
| 20260508101511 | 21 | 0.0 | 0.0 | 0.00 | 0.00 | 0.00 | 43 | 1023.3 | |
| 20260508100010 | 21 | 0.0 | 0.0 | 0.00 | 0.00 | 0.00 | 42 | 1023.3 | |
| 20260508094513 | 21 | 0.0 | 0.0 | 0.00 | 0.00 | 0.00 | 42 | 1023.1 | |
| 20260508093011 | 22 | 0.0 | 0.0 | 0.00 | 0.00 | 0.00 | 41 | 1023.0 | |
| 20260508091510 | 22 | 0.0 | 0.0 | 0.00 | 0.00 | 0.00 | 41 | 1022.9 | |
| 20260508090010 | 22 | 0.0 | 0.0 | 0.00 | 0.00 | 0.00 | 40 | 1022.8 | |
| 20260508084513 | 23 | 0.0 | 0.0 | 0.00 | 0.00 | 0.00 | 41 | 1022.7 | |
| 20260508083010 | 23 | 0.0 | 0.0 | 0.00 | 0.00 | 0.00 | 40 | 1022.6 | |
| 20260508081510 | 23 | 0.0 | 0.0 | 0.00 | 0.00 | 0.00 | 39 | 1022.7 | |
| 20260508080010 | 23 | 0.0 | 0.0 | 0.00 | 0.00 | 0.00 | 38 | 1022.6 | |
| 20260508074524 | 23 | 0.0 | 0.0 | 0.00 | 0.00 | 0.00 | 39 | 1022.6 | |
| 20260508073014 | 24 | 0.0 | 0.0 | 0.00 | 0.00 | 0.00 | 38 | 1022.6 | |
| 20260508071511 | 24 | 0.0 | 0.0 | 0.00 | 0.00 | 0.00 | 38 | 1022.6 | |
| 20260508070011 | 24 | 0.0 | 0.0 | 0.00 | 0.00 | 0.00 | 36 | 1022.6 | |
| 20260508064516 | 24 | 0.0 | 0.0 | 0.00 | 0.00 | 0.00 | 37 | 1022.7 | |
| 20260508063011 | 24 | 0.0 | 0.0 | 0.00 | 0.00 | 0.00 | 36 | 1022.8 | |
| 20260508061510 | 25 | 0.0 | 0.0 | 0.00 | 0.00 | 0.00 | 38 | 1022.8 | |
| 20260508060011 | 24 | 0.0 | 0.0 | 0.00 | 0.00 | 0.00 | 38 | 1023.1 | |
| 20260508054513 | 24 | 0.0 | 0.0 | 0.00 | 0.00 | 0.00 | 39 | 1023.2 | |
| 20260508053018 | 23 | 0.0 | 0.0 | 0.00 | 0.00 | 0.00 | 39 | 1023.4 | |
| 20260508051510 | 23 | 0.0 | 0.0 | 0.00 | 0.00 | 0.00 | 42 | 1023.6 | |
| 20260508050011 | 23 | 0.0 | 0.0 | 0.00 | 0.00 | 0.00 | 42 | 1023.8 | |
| 20260508044512 | 23 | 0.0 | 0.0 | 0.00 | 0.00 | 0.00 | 44 | 1024.0 | |
| 20260508043012 | 22 | 0.0 | 0.0 | 0.00 | 0.00 | 0.00 | 46 | 1024.3 | |
| 20260508041646 | 22 | 0.0 | 0.0 | 0.00 | 0.00 | 0.00 | 47 | 1024.7 | |
| 20260508041511 | 22 | 0.0 | 0.0 | 0.00 | 0.00 | 0.00 | 47 | 1024.7 | |
| 20260508040055 | 22 | 0.0 | 0.0 | 0.00 | 0.00 | 0.00 | 46 | 1025.1 | |
| 20260508040011 | 22 | 0.0 | 0.0 | 0.00 | 0.00 | 0.00 | 46 | 1025.1 | |
| 20260508034513 | 22 | 0.0 | 0.0 | 0.00 | 0.00 | 0.00 | 46 | 1025.5 | |
| 20260508033010 | 22 | 0.0 | 0.0 | 0.00 | 0.00 | 0.00 | 48 | 1025.7 | |
| 20260508031510 | 22 | 0.0 | 0.0 | 0.00 | 0.00 | 0.00 | 47 | 1026.0 | |
| 20260508030011 | 21 | 0.0 | 0.0 | 0.00 | 0.00 | 0.00 | 48 | 1026.2 | |
| 20260508024511 | 21 | 0.0 | 0.0 | 0.00 | 0.00 | 0.00 | 48 | 1026.3 | |
| 20260508023359 | 21 | 0.0 | 0.0 | 0.00 | 0.00 | 0.00 | 49 | 1026.5 | |
| 20260508023015 | 21 | 0.0 | 0.0 | 0.00 | 0.00 | 0.00 | 49 | 1026.5 | |
| 20260508021511 | 20 | 0.0 | 0.0 | 0.00 | 0.00 | 0.00 | 51 | 1026.5 | |
| 20260508020011 | 20 | 0.0 | 0.0 | 0.00 | 0.00 | 0.00 | 51 | 1026.6 | |
| 20260508014511 | 19 | 0.0 | 0.0 | 0.00 | 0.00 | 0.00 | 52 | 1026.9 | |
| 20260508013010 | 18 | 0.0 | 0.0 | 0.00 | 0.00 | 0.00 | 53 | 1027.1 | |
| 20260508011513 | 18 | 0.0 | 0.0 | 0.00 | 0.00 | 0.00 | 55 | 1027.2 | |
| 20260508010011 | 17 | 0.0 | 0.0 | 0.00 | 0.00 | 0.00 | 57 | 1027.4 | |
| 20260508004511 | 17 | 0.0 | 0.0 | 0.00 | 0.00 | 0.00 | 58 | 1027.5 | |
| 20260508003010 | 16 | 0.0 | 0.0 | 0.00 | 0.00 | 0.00 | 60 | 1027.5 |